Volver al catálogo

HULIANWANG DIGUI-148

ActivoComunicacionesLEO
NORAD 67524·PAYLOAD·🇨🇳 China

Lanzado Jan 19, 2026 desde Wenchang Space Launch Site

Loading…

Próximos Pases (próximas 24 horas)

TLE

ActualizadoSource: Space-Track

Época: Sep 14, 2026, 01:54 UTC

1 67524U 26013C   26257.07926864 -.00000111  00000-0  28638-4 0  9995
2 67524  50.0102  36.9779 0000821  83.4788 276.6178 13.29330542 31872

Sigue HULIANWANG DIGUI-148 en tiempo real con AllMySat

Download on the App Store